DW7144 Weather Reports


time (UTC)temp
C
wind
direction
speed
KPH
gust
KPH
rain 1hr
cm
rain 24hr
cm
rain mn
cm
humidity
%
barometer
mb
20260506013603 7 10 6.4 17.7 0.00 0.00 0.00 80 1011.2
20260506012703 7 356 4.8 16.1 0.00 0.00 0.00 80 1011.3
20260506011803 7 12 4.8 12.9 0.00 0.00 0.00 80 1011.4
20260506010903 7 12 6.4 16.1 0.00 0.00 0.00 79 1011.4
20260506010003 7 23 8.0 19.3 0.00 0.00 0.00 79 1011.3
20260506005403 7 22 9.7 17.7 0.00 0.00 0.00 79 1011.3
20260506004503 7 13 9.7 24.1 0.00 0.00 0.00 78 1011.3
20260506003603 8 6 9.7 22.5 0.00 0.00 0.00 78 1011.5
20260506002703 8 2 6.4 19.3 0.00 0.00 0.00 78 1011.4
20260506001803 8 358 6.4 17.7 0.00 0.00 0.00 79 1011.5
20260506000924 8 10 6.4 16.1 0.00 0.00 0.00 80 1011.5
20260506000024 8 16 4.8 17.7 0.00 0.00 0.00 81 1011.4
20260505235403 8 13 6.4 17.7 0.00 0.00 0.00 81 1011.4
20260505234503 8 25 6.4 16.1 0.00 0.00 0.00 81 1011.5
20260505233624 8 20 6.4 16.1 0.00 0.00 0.00 81 1011.6
20260505232703 8 10 6.4 17.7 0.00 0.00 0.00 81 1011.7
20260505231803 8 11 8.0 19.3 0.00 0.00 0.00 81 1011.6
20260505230903 8 358 6.4 16.1 0.00 0.00 0.00 80 1011.7
20260505230004 8 10 4.8 14.5 0.00 0.00 0.00 79 1011.8
20260505225403 8 18 4.8 14.5 0.00 0.00 0.00 79 1011.8
20260505224503 8 22 6.4 16.1 0.00 0.00 0.00 78 1011.7
20260505223603 8 17 8.0 19.3 0.00 0.00 0.00 78 1011.7
20260505222703 8 12 9.7 22.5 0.00 0.00 0.00 77 1011.7
20260505221824 8 19 9.7 17.7 0.00 0.00 0.00 76 1011.6
20260505220903 9 25 9.7 24.1 0.00 0.00 0.00 76 1011.6
20260505220003 9 15 8.0 20.9 0.00 0.00 0.00 79 1011.6
20260505215403 9 9 8.0 20.9 0.00 0.00 0.00 80 1011.5
20260505214503 10 2 6.4 17.7 0.00 0.00 0.00 80 1011.6
20260505213603 10 17 11.3 22.5 0.00 0.00 0.00 81 1011.4
20260505212703 10 16 9.7 24.1 0.00 0.00 0.00 80 1011.3
20260505211803 10 23 9.7 19.3 0.00 0.00 0.00 80 1011.3
20260505210903 10 26 11.3 22.5 0.00 0.00 0.00 79 1011.3
20260505210003 10 31 9.7 24.1 0.00 0.00 0.00 79 1011.2
20260505205424 10 25 11.3 24.1 0.00 0.00 0.00 79 1011.3
20260505204524 10 28 9.7 20.9 0.00 0.00 0.00 79 1011.2
20260505203603 10 19 12.9 24.1 0.00 0.00 0.00 79 1011.1
20260505202724 10 21 8.0 20.9 0.00 0.00 0.00 79 1011.1
20260505201803 11 23 9.7 22.5 0.00 0.00 0.00 80 1011.0
20260505200903 11 41 8.0 19.3 0.00 0.00 0.00 80 1011.0
20260505200024 11 42 9.7 22.5 0.00 0.00 0.00 80 1010.9
20260505195403 11 40 11.3 20.9 0.00 0.00 0.00 79 1010.8
20260505194503 11 36 9.7 22.5 0.00 0.00 0.00 78 1010.7
20260505193603 11 39 9.7 22.5 0.00 0.00 0.00 78 1010.6
20260505192703 11 56 9.7 20.9 0.00 0.00 0.00 77 1010.4
20260505191824 12 48 8.0 20.9 0.00 0.00 0.00 76 1010.3
20260505190903 12 35 9.7 19.3 0.00 0.00 0.00 75 1010.2
20260505190024 12 23 8.0 19.3 0.00 0.00 0.00 74 1010.1
20260505185403 12 25 8.0 17.7 0.00 0.00 0.00 72 1010.1
20260505184503 13 4 6.4 16.1 0.00 0.00 0.00 67 1009.9
20260505183624 13 332 4.8 20.9 0.00 0.00 0.00 63 1009.8
20260505182703 13 314 6.4 17.7 0.00 0.00 0.00 63 1009.7
20260505181803 13 325 6.4 16.1 0.00 0.05 0.00 63 1009.7
20260505180903 13 314 6.4 17.7 0.00 0.05 0.00 64 1009.7
20260505180003 13 314 8.0 17.7 0.00 0.05 0.00 64 1009.7
20260505175424 13 309 8.0 24.1 0.00 0.05 0.00 63 1009.8
20260505174503 13 314 6.4 24.1 0.00 0.05 0.00 63 1009.6
20260505173624 13 316 6.4 16.1 0.00 0.05 0.00 63 1009.7
20260505172703 14 316 6.4 16.1 0.00 0.05 0.00 62 1009.7
20260505171803 14 318 8.0 19.3 0.00 0.05 0.00 62 1009.7
20260505170903 14 325 8.0 17.7 0.00 0.05 0.00 63 1009.7
20260505170003 13 319 8.0 19.3 0.00 0.05 0.00 63 1009.8
20260505165403 13 307 8.0 19.3 0.00 0.05 0.00 63 1009.8
20260505164503 13 299 6.4 19.3 0.00 0.05 0.00 63 1009.8
20260505163603 14 306 8.0 20.9 0.00 0.05 0.00 63 1009.7
20260505162703 14 323 6.4 14.5 0.00 0.05 0.00 64 1009.7
20260505161803 14 315 6.4 17.7 0.00 0.05 0.00 63 1009.7
20260505160924 14 336 8.0 19.3 0.00 0.05 0.00 63 1009.7
20260505152724 14 317 8.0 20.9 0.00 0.05 0.00 63 1009.9
20260505151803 15 303 9.7 19.3 0.00 0.05 0.00 64 1009.9
20260505150903 14 321 9.7 24.1 0.00 0.05 0.00 63 1009.9
20260505124503 14 324 4.8 17.7 0.00 0.05 0.00 63 1010.2
20260505123603 14 325 4.8 12.9 0.00 0.05 0.00 63 1010.2
20260505122703 14 325 4.8 9.7 0.00 0.05 0.00 63 1010.2
20260505121803 14 325 4.8 9.7 0.00 0.05 0.00 62 1010.2
20260505120903 15 325 4.8 12.9 0.00 0.05 0.00 63 1010.2
20260505120004 14 323 3.2 9.7 0.00 0.05 0.00 61 1010.2
20260505115403 15 323 3.2 9.7 0.00 0.05 0.00 63 1010.2
20260505114503 14 323 4.8 16.1 0.00 0.05 0.00 62 1010.3
20260505113603 14 328 6.4 17.7 0.00 0.05 0.00 62 1010.4
20260505112703 15 331 8.0 16.1 0.00 0.05 0.00 63 1010.3
20260505111803 14 327 6.4 17.7 0.00 0.05 0.00 65 1010.5
20260505110903 14 330 6.4 12.9 0.00 0.05 0.00 66 1010.5
20260505101803 14 327 6.4 16.1 0.00 0.05 0.00 62 1010.8
20260505100903 13 329 6.4 16.1 0.00 0.05 0.00 65 1010.8
20260505100003 13 331 6.4 16.1 0.00 0.05 0.00 65 1010.9
20260505095403 13 332 6.4 16.1 0.00 0.05 0.00 68 1010.9
20260505094527 13 334 4.8 12.9 0.00 0.05 0.00 72 1010.9
20260505093603 13 334 6.4 17.7 0.00 0.05 0.00 73 1010.9
20260505092724 12 340 8.0 17.7 0.00 0.05 0.00 74 1010.9
20260505091803 12 341 4.8 14.5 0.00 0.05 0.00 75 1010.9
20260505090924 12 340 6.4 14.5 0.00 0.05 0.00 77 1011.0
20260505090024 12 342 6.4 14.5 0.00 0.05 0.00 77 1011.1
20260505085424 12 343 4.8 16.1 0.00 0.05 0.00 76 1011.1
20260505084503 12 343 6.4 16.1 0.00 0.05 0.00 75 1011.1
20260505083603 12 341 6.4 14.5 0.00 0.05 0.00 77 1011.0
20260505082724 11 340 6.4 16.1 0.00 0.05 0.00 79 1011.1
20260505081803 11 343 6.4 16.1 0.00 0.05 0.00 81 1011.1
20260505080903 11 344 4.8 12.9 0.00 0.05 0.00 82 1011.2
20260505080003 11 344 4.8 12.9 0.00 0.05 0.00 84 1011.2
20260505075403 11 344 6.4 14.5 0.00 0.05 0.00 84 1011.2
20260505074503 10 345 6.4 16.1 0.00 0.05 0.00 86 1011.1
20260505073603 10 347 8.0 14.5 0.00 0.05 0.00 86 1011.1
20260505072724 10 352 8.0 16.1 0.00 0.05 0.00 89 1011.1
20260505071803 10 355 4.8 9.7 0.00 0.05 0.00 90 1011.2
20260505070903 9 355 4.8 9.7 0.00 0.05 0.00 90 1011.2
20260505070024 9 355 4.8 9.7 0.00 0.05 0.00 91 1011.3
20260505065403 9 355 4.8 8.0 0.00 0.05 0.00 91 1011.4
20260505064503 9 355 4.8 8.0 0.00 0.05 0.00 91 1011.4
20260505063603 9 355 4.8 9.7 0.00 0.05 0.00 91 1011.4
20260505062703 9 355 3.2 9.7 0.00 0.05 0.00 92 1011.5
20260505061824 9 355 3.2 9.7 0.00 0.05 0.00 92 1011.5
20260505060903 9 355 4.8 14.5 0.00 0.05 0.00 92 1011.4
20260505060024 9 355 6.4 14.5 0.00 0.05 0.00 92 1011.4
20260505055403 9 355 6.4 9.7 0.00 0.05 0.00 92 1011.5
20260505054524 9 355 6.4 14.5 0.00 0.05 0.00 92 1011.3
20260505053603 9 355 6.4 12.9 0.00 0.05 0.00 92 1011.4
20260505052703 9 359 8.0 14.5 0.00 0.05 0.00 91 1011.3
20260505051803 9 12 6.4 12.9 0.00 0.05 0.00 92 1011.3
20260505050903 10 16 4.8 11.3 0.00 0.05 0.00 91 1011.4
20260505040903 10 0 0.0 1.6 0.00 0.05 0.00 91 1011.1
20260505040003 10 0 0.0 0.0 0.00 0.05 0.00 91 1011.2
20260505035403 10 0 0.0 1.6 0.00 0.05 0.00 91 1011.2
20260505034503 10 0 0.0 1.6 0.00 0.05 0.00 91 1011.2
20260505033603 10 0 0.0 1.6 0.00 0.05 0.00 91 1011.1
20260505032703 10 0 0.0 1.6 0.00 0.05 0.00 91 1011.1
20260505031803 10 0 0.0 0.0 0.00 0.05 0.00 91 1011.2
20260505030903 10 0 0.0 1.6 0.00 0.05 0.00 91 1011.2
20260505030003 10 0 0.0 0.0 0.00 0.05 0.00 91 1011.2
20260505025403 10 0 0.0 0.0 0.00 0.05 0.00 91 1011.3
20260505024503 10 0 0.0 1.6 0.00 0.05 0.00 91 1011.4
20260505023603 10 0 0.0 3.2 0.00 0.05 0.00 91 1011.5
20260505022703 10 0 0.0 3.2 0.00 0.05 0.00 91 1011.5
20260505021803 10 18 1.6 4.8 0.00 0.05 0.00 91 1011.5
20260505020903 10 18 3.2 8.0 0.00 0.05 0.00 91 1011.6
20260505020024 10 18 1.6 6.4 0.00 0.05 0.00 91 1011.6
20260505015403 10 18 1.6 3.2 0.00 0.05 0.00 91 1011.6
20260505014503 10 0 0.0 3.2 0.00 0.05 0.00 91 1011.6